Weather past 2 weeks in Saint-Pierre, Saint Pierre and Miquelon

Now
43 °F

Fog.


Feels Like: 35 °F
Forecast: 42 / 45 °F
Wind: 17 mph from Southwest

Location: Saint-Pierre

Current Time: May 23, 2015 at 2:44:16 PM

Latest Report: May 23, 2015 at 2:00 PM


Visibility: 1 mi

Pressure: 29.92 "Hg

Humidity: 93%

Dew point: 41 °F

Location of Saint-PierreLocation

Historic Weather in Saint-Pierre — Graph

°F

Saint-Pierre temperature yesterday

Maximum temperature yesterday: 46 °F (at 2:00 PM)
Minimum temperature yesterday: 37 °F (at 6:00 AM)
Average temperature yesterday: 43 °F

Past Weeks' High & Low Weather Summary

 TemperatureHumidityPressure
High61 °F (May 18, 4:00 PM)100% (May 10, 6:00 AM)30.42 "Hg (May 10, 6:00 AM)
Low36 °F (May 9, 6:00 AM)38% (May 11, 4:00 PM)29.36 "Hg (May 13, 6:00 AM)
Average45 °F80%29.98 "Hg
* Reported May 8 1:00 PM — May 23 1:00 PM, Saint-Pierre, Weather by CustomWeather, © 2015

Note: Actual official high and low records may vary slightly from our data, if they occured in-between our weather recording intervals... More about our weather records

Advertising

Saint-Pierre weather history for previous 24 hours

 ConditionsComfort  
Time TempWeatherWind HumidityBarometerVisibility
1:00 PM
Sat, May 23
45 °FFog.15 mph87%29.89 "Hg3 mi
12:00 PM43 °FFog.20 mph87%29.89 "Hg3 mi
11:00 AM45 °FScattered clouds.21 mph87%29.86 "HgN/A
10:00 AM45 °FPassing clouds.23 mph87%29.80 "HgN/A
9:00 AM43 °FPassing clouds.28 mph93%29.74 "HgN/A
8:00 AM43 °FPassing clouds.24 mph100%29.68 "HgN/A
7:00 AM43 °FPassing clouds.28 mph100%29.59 "HgN/A
6:00 AM43 °FFog.29 mph100%29.47 "Hg0 mi
12:00 AM39 °FRain. Fog.23 mph100%29.71 "Hg2 mi
11:00 PM
Fri, May 22
41 °FLight rain. Mostly cloudy.26 mph93%29.77 "Hg4 mi
10:00 PM41 °FLight rain. Low clouds.24 mph93%29.86 "Hg5 mi
9:00 PM41 °FLight rain. Low clouds.20 mph93%29.95 "HgN/A
8:00 PM41 °FBroken clouds.16 mph93%30.01 "HgN/A
7:00 PM41 °FLight rain. Partly sunny.10 mph93%30.04 "HgN/A
6:00 PM43 °FLight rain. Clear.6 mph87%30.09 "HgN/A
5:00 PM45 °FPassing clouds.5 mph81%30.09 "HgN/A
4:00 PM46 °FPassing clouds.3 mph76%30.12 "HgN/A
2:00 PM46 °FPassing clouds.5 mph76%30.12 "HgN/A
Weather by CustomWeather, © 2015

See weather overviewHow to use our weather pages